STARLINK-11551, 62840

Orbit data source: Space-Track

STARLINK-11551, 62840 is a payload satellite owned by SpaceX/Seattle (US) in LEO that was launched on Mon, 27 Jan 2025 UTC via an FALCON 9 launch vehicle from the Air Force Eastern Test Range (AFETR). Payload-class satellites include a variety of spacecraft equipped with specific instruments for various scientific and technological missions. These include communications satellites like Starlink; space stations such as the ISS; scientific satellites like the Hubble; Earth observation satellites from companies like Planet Labs, Umbra, and HawkEye 360; GPS; miniature CubeSats for education and research; and military/defense satellites.

Loading next visibility...
Identifier
62840, 2025-019M
Orbit
LEO
Country
Flag of USUS
Related business
Manufacturer
SpaceX/Seattle
Mission
Operational Commercial Communications
Bus & Motor
STARLINK V2MD, Unknown motor
Mass
960 kg wet, ~910 kg dry
Launch date (UTC)
2025-01-27 (11 months ago)
Launch vehicle
FALCON 9
Launch site
Air Force Eastern Test Range (AFETR)
Object type
Payload
Rocket body
Debris
Shape & HBR
Box + 2 Pan, 18.1 m
Radar Cross Section
36.964 m², Large (>1 m²)

Expand to show TLE details & history
Last TLE update: 15 hours ago

TLE from 15 hours ago
0 STARLINK-11551
1 62840U 25019M   25353.27065187  .00152309  00000-0  11615-2 0  9997
2 62840  43.0009  70.6565 0001675 231.4835 128.5883 15.70990351 51238
Epoch: 2025-12-19T06:29Z
TLE epoch observation values (Epoch: 2025-12-19T06:29:44.321Z)
Latitude
Longitude
-114.89238°
Altitude
356.54 km
Speed
7.697 km/s
True Right ascension
04h 42m 37s
True Declination
0° 00' 00"
Sunlit
Object was in full shadow at epoch
Visualization orbit readout
Latitude
Unknown
Longitude
Unknown
Altitude
Unknown
Speed
Unknown
Apparent Right ascension
Unknown
Apparent Declination
Unknown
Sunlit
N/A
Visualization observer readout
Local Sidereal Time
20:46:08
Azimuth
Unknown
Elevation
Unknown
Doppler factor
Unknown
Orbital elements
Apogee altitude
359.175 km
Perigee altitude
356.919 km
Semi-major axis
6,736.184 km
Eccentricity
0.00017
Inclination
43.0009°
RAAN
70.6565°
Arg. of periapsis
231.4835°
True anomaly
128.6033°
Mean anomaly
128.5883°
Eccentric anomaly
128.5958°
Mean motion
3.92575 °/min
Orbital period
91.7 mins
BSTAR
0.0011615
Loading maneuver chart data...
Computing Atmospheric mass density...
Loading historical data...
Loading historical data...
Loading historical data...
Loading historical data...
Loading historical data...
Loading historical data...
Loading historical data...

Documentation

Showing up to 5 results
|